#timestamp,LO_Frequency,Hit,StdDev 
1513645215.6,286046999.6,N
1513645235.4,286046995.0,N
1513645255.3,286046992.2,N
1513645275.1,286046989.2,N
1513645276.0,286046989.2,N
1513645295.8,286046985.4,N
1513645315.7,286046986.1,N
1513645335.5,286046985.4,N
1513645355.3,286046983.7,N
1513645375.2,286046985.6,N
1513645395.9,286046986.3,N
1513645415.7,286046985.8,N
1513645435.5,286046984.1,N
1513645455.4,286046981.9,N
1513645475.2,286046981.8,N
1513645495.0,286046983.6,N
1513645495.9,286046983.6,N
1513645515.8,286046978.7,N
1513645535.6,286046973.0,Y
1513645555.4,286046981.9,P
1513645575.3,286046981.8,P
1513645595.1,286046982.4,P
1513645615.9,286046983.4,Y
1513645635.7,286047000.1,P
1513645655.5,286047000.0,N
1513645675.3,286047001.0,N
1513645695.2,286047000.7,N
1513645715.9,286046999.4,N
1513645735.7,286046997.3,N
1513645755.6,286046992.7,N
1513645775.4,286046994.3,N
1513645795.2,286046996.4,N
1513645815.1,286046996.4,N
1513645816.0,286046996.4,N
1513645835.8,286046993.6,N
1513645855.6,286046990.1,N
1513645875.5,286046991.7,N
1513645895.3,286046994.2,N
1513645915.1,286046989.0,N
1513645935.8,286046986.9,N
1513645955.7,286046991.4,N
1513645975.5,286046992.1,N
1513645995.3,286046993.5,N
1513646015.2,286046993.4,N
1513646035.9,286046994.0,N
1513646055.7,286046994.8,N
1513646075.6,286046994.8,N
1513646095.4,286046992.3,N
1513646115.2,286046991.5,N
1513646135.1,286046989.4,N
1513646136.0,286046989.4,N
1513646155.8,286046988.1,N
1513646175.6,286046989.5,N
1513646195.4,286046992.2,N
1513646215.3,286046994.7,N
1513646235.1,286046996.1,N
1513646255.8,286046993.5,N
1513646275.7,286046994.4,N
1513646295.5,286046991.0,Y
1513646315.3,286046995.9,P
1513646335.2,286046992.1,P
1513646355.0,286046993.7,P
1513646355.9,286046993.7,Y
1513646375.8,286047003.7,P
1513646395.6,286047006.0,N
1513646415.4,286047003.7,N
1513646435.2,286047005.6,N
1513646455.1,286047001.3,N
1513646456.0,286047001.3,N
1513646475.8,286047004.1,N
1513646495.6,286047005.6,N
1513646515.5,286047006.0,N
1513646535.3,286047005.2,N
1513646555.1,286047003.1,N
1513646575.9,286047003.5,N
1513646595.7,286047003.6,N
1513646615.5,286047005.6,N
1513646635.4,286047003.2,N
1513646655.2,286047004.8,N
1513646675.0,286047003.7,N
1513646675.9,286047003.7,N
1513646695.8,286047003.1,N
1513646715.6,286047000.3,N
1513646735.4,286046998.8,N
1513646755.2,286047002.6,N
1513646775.1,286046998.7,N
1513646776.0,286046998.7,N
1513646795.8,286047002.1,N
1513646815.6,286047004.0,N
1513646835.5,286047006.4,N
1513646855.3,286047006.4,N
1513646875.1,286047007.2,N
1513646895.9,286047007.2,N
1513646915.7,286047009.1,Y
1513646935.5,286047007.4,P
1513646955.4,286047006.5,P
1513646975.2,286047008.1,P
1513646995.0,286047010.9,Y
1513646995.9,286047010.9,P
1513647015.8,286047007.1,P
1513647035.6,286047007.2,P
1513647055.4,286047006.5,Y
1513647075.3,286047002.8,P
1513647095.1,286047002.7,N
1513647115.8,286047003.5,N
1513647135.7,286047006.1,N
1513647155.5,286047010.2,Y
1513647175.3,286047006.8,P
1513647195.2,286047008.3,P
1513647215.9,286047011.5,P
1513647235.7,286047011.3,Y
1513647255.6,286047001.8,P
1513647275.4,286047006.9,N
1513647295.2,286047006.8,N
1513647315.1,286047006.6,N
1513647316.0,286047006.6,Y
1513647335.8,286047003.1,P
1513647355.6,286047006.8,P
1513647375.5,286047004.5,N
1513647395.3,286047005.0,Y
1513647415.1,286046999.6,P
1513647435.9,286046997.9,N
1513647455.7,286046997.9,N
1513647475.5,286046994.7,N
1513647495.4,286046993.5,N
1513647515.2,286046990.4,N
1513647535.0,286046989.3,N
1513647535.9,286046989.3,N
1513647555.8,286046991.0,N
1513647575.6,286046993.1,N
1513647595.4,286046991.3,N
1513647615.3,286046989.8,N
1513647635.1,286046992.2,N
1513647636.0,286046992.2,N
1513647655.8,286046990.5,N
1513647675.6,286046991.4,N
1513647695.5,286046991.4,N
1513647715.3,286046988.9,N
1513647735.1,286046991.7,N
1513647755.9,286046991.9,N
1513647775.7,286046994.1,N
1513647795.5,286046992.7,N
1513647815.4,286046990.2,N
1513647835.2,286046994.6,N
1513647855.0,286046994.4,N
1513647855.9,286046994.4,N
1513647875.8,286046994.5,N
1513647895.6,286046993.4,N
1513647915.4,286046994.8,N
1513647935.3,286046992.8,N
1513647955.1,286046992.8,N
1513647956.0,286046992.8,Y
1513647975.8,286046996.6,P
1513647995.7,286046995.6,N
1513648015.5,286046993.4,P
1513648035.3,286046995.2,N
1513648055.2,286046995.5,Y
1513648075.9,286047002.4,P
1513648095.7,286047002.6,N
1513648115.6,286047002.2,N
1513648135.4,286047003.5,N
1513648155.2,286047002.6,N
1513648175.1,286047000.4,N
1513648176.0,286047000.4,N
1513648195.8,286046998.1,N
1513648215.6,286046999.0,N
1513648235.5,286046997.2,N
1513648255.3,286046995.5,N
1513648275.1,286046997.1,N
1513648295.8,286046996.5,N
1513648315.7,286046996.8,N
1513648335.5,286046999.6,N
1513648355.3,286047001.2,N
1513648375.2,286046997.1,N
1513648395.9,286046999.7,N
1513648415.7,286047002.2,N
1513648435.6,286046998.3,N
1513648455.4,286046997.8,N
1513648475.2,286046997.3,N
1513648495.1,286047001.1,N
1513648496.0,286047001.1,N
1513648515.8,286046998.1,N
1513648535.6,286046998.7,N
1513648555.4,286047002.5,N
1513648575.3,286047003.8,N
1513648595.1,286047002.3,N
1513648615.8,286047002.2,N
1513648635.7,286047005.6,N
1513648655.5,286047006.0,N
1513648675.3,286047003.9,N
1513648695.2,286046999.0,N
1513648715.9,286046998.4,N
1513648735.7,286047001.2,N
1513648755.6,286047000.0,N
1513648775.4,286047001.0,N
1513648795.2,286047001.1,N
